Change the Weather History Date:

Saturday, March 13, 2010

  Actual Average Record
Temperature  
Mean Temperature 34 °F -  
Max Temperature 43 °F 57 °F - ()
Min Temperature 26 °F 37 °F - ()
Degree Days  
Heating Degree Days 30    
Moisture  
Dew Point 28 °F    
Average Humidity 75    
Maximum Humidity 100    
Minimum Humidity 29    
Precipitation  
Precipitation 0.00 in 0.05 in - ()
Sea Level Pressure  
Sea Level Pressure 29.95 in    
Wind  
Wind Speed 8 mph ()    
Max Wind Speed 14 mph    
Max Gust Speed -    
Visibility 4.9 miles    
Events      
T = Trace of Precipitation, MM = Missing Value Source: Averaged Metar Reports

Daily Weather History Graph

Daily Weather History Graph

Search for Another Location

Airport or City:

Trip Planner

Search our weather history database for the weather conditions in past years. The results will help you decide how hot, cold, wet, or windy it might be!

Date:

Astronomy

Mar. 13, 2010 Rise Set
Actual Time 6:32 AM EET 6:18 PM EET
Civil Twilight 6:03 AM EET 6:47 PM EET
Nautical Twilight 5:29 AM EET 7:21 PM EET
Astronomical Twilight 4:55 AM EET 7:56 PM EET
Moon 5:14 AM EET (3/13) 4:08 PM EET (3/13)
Length of Visible Light 12h 44m
Length of Day
11h 46m
Waning Crescent, 5% of the Moon is Illuminated
Mar 13
Waning Crescent
Mar 15
New
Mar 23
First Quarter
Mar 30
Full
Apr 6
Last Quarter

Hourly Weather History & Observations

Time (EET) Temp. Windchill Dew Point Humidity Pressure Visibility Wind Dir Wind Speed Gust Speed Precip Events Conditions
12:00 AM 31 °F - 26 °F 76% 29.90 in 6 mi WSW 8.9 mph - -  
12:00 AM 32.0 °F 22.5 °F 30.2 °F 93% 29.89 in 5.0 mi WSW 12.7 mph - N/A   Unknown
12:30 AM 32.0 °F 23.0 °F 30.2 °F 93% 29.89 in 5.0 mi WSW 11.5 mph - N/A   Unknown
1:00 AM 30 °F - 26 °F 78% 29.91 in 6 mi WSW 6.7 mph - -  
1:00 AM 32.0 °F 22.5 °F 30.2 °F 93% 29.89 in 4.3 mi WSW 12.7 mph - N/A   Unknown
1:30 AM 32.0 °F 23.0 °F 30.2 °F 93% 29.89 in 4.3 mi WSW 11.5 mph - N/A   Unknown
2:00 AM 30 °F - 25 °F 76% 29.91 in 6 mi SW 6.7 mph - -  
2:00 AM 30.2 °F 21.9 °F 28.4 °F 93% 29.89 in 4.3 mi WSW 9.2 mph - N/A   Unknown
2:30 AM 30.2 °F 23.4 °F 28.4 °F 93% 29.89 in 4.3 mi West 6.9 mph - N/A   Unknown
3:00 AM 29 °F - 24 °F 75% 29.92 in 6 mi WSW 6.7 mph - -  
3:00 AM 30.2 °F 24.3 °F 28.4 °F 93% 29.89 in 4.3 mi West 5.8 mph - N/A   Unknown
3:30 AM 30.2 °F 22.6 °F 28.4 °F 93% 29.92 in 4.3 mi West 8.1 mph - N/A   Unknown
4:00 AM 28 °F - 23 °F 75% 29.93 in 6 mi WSW 6.7 mph - -  
4:00 AM 30.2 °F 23.4 °F 26.6 °F 86% 29.92 in 4.3 mi West 6.9 mph - N/A   Unknown
5:00 AM 29 °F - 22 °F 66% 29.94 in 6 mi West 4.5 mph - -   Scattered Clouds
5:00 AM 30.2 °F 22.6 °F 26.6 °F 86% 29.92 in 5.0 mi West 8.1 mph - N/A   Partly Cloudy
5:30 AM 30.2 °F 25.4 °F 26.6 °F 86% 29.95 in 5.0 mi West 4.6 mph - N/A   Partly Cloudy
6:00 AM 28 °F - 21 °F 65% 29.96 in 6 mi West 4.5 mph - -   Mostly Cloudy
6:00 AM 28.4 °F 22.2 °F 26.6 °F 93% 29.95 in 5.0 mi West 5.8 mph - N/A   Partly Cloudy
6:30 AM 28.4 °F 22.2 °F 26.6 °F 93% 29.95 in 4.3 mi West 5.8 mph - N/A   Scattered Clouds
7:00 AM 27 °F - 22 °F 73% 29.97 in 2 mi West 4.5 mph - -   Mist
7:00 AM 28.4 °F 20.4 °F 26.6 °F 93% 29.95 in 3.7 mi West 8.1 mph - N/A   Unknown
7:30 AM 30.2 °F 24.3 °F 26.6 °F 86% 29.95 in 3.1 mi West 5.8 mph - N/A   Mist
8:00 AM 29 °F - 23 °F 69% 29.97 in 2 mi WSW 6.7 mph - -   Mist
8:00 AM 30.2 °F 23.4 °F 28.4 °F 93% 29.95 in 3.1 mi West 6.9 mph - N/A   Mist
8:30 AM 32.0 °F 25.6 °F 28.4 °F 87% 29.98 in 3.1 mi West 6.9 mph - N/A   Mist
9:00 AM 32 °F - 23 °F 60% 29.99 in 6 mi WSW 6.7 mph - -  
9:00 AM 33.8 °F 27.7 °F 28.4 °F 81% 29.98 in 3.1 mi West 6.9 mph - N/A   Mist
9:30 AM 35.6 °F 28.6 °F 30.2 °F 81% 29.98 in 3.7 mi West 9.2 mph - N/A   Unknown
10:00 AM 35 °F - 24 °F 52% 29.99 in 6 mi West 8.9 mph - -  
10:00 AM 35.6 °F 28.6 °F 30.2 °F 81% 29.98 in 5.0 mi West 9.2 mph - N/A   Unknown
10:30 AM 37.4 °F 30.8 °F 30.2 °F 75% 29.98 in - West 9.2 mph - N/A   Clear
11:00 AM 37 °F - 23 °F 44% 29.99 in 6 mi WSW 8.9 mph - -  
11:00 AM 39.2 °F 32.5 °F 32.0 °F 75% 29.98 in - West 10.4 mph - N/A   Clear
11:30 AM 39.2 °F 32.0 °F 32.0 °F 75% 29.98 in - WSW 11.5 mph - N/A   Clear
12:00 PM 39 °F - 24 °F 42% 29.99 in 6 mi WSW 8.9 mph - -  
12:00 PM 39.2 °F 33.0 °F 30.2 °F 70% 29.98 in - West 9.2 mph - N/A   Clear
12:30 PM 41.0 °F 34.7 °F 32.0 °F 70% 29.98 in - West 10.4 mph - N/A   Clear
1:00 PM 40 °F - 23 °F 37% 29.99 in 6 mi WSW 8.9 mph - -  
1:00 PM 41.0 °F 34.7 °F 32.0 °F 70% 29.98 in - West 10.4 mph - N/A   Clear
1:30 PM 41.0 °F 35.2 °F 32.0 °F 70% 29.95 in - West 9.2 mph - N/A   Clear
2:00 PM 41 °F - 22 °F 33% 29.99 in 6 mi West 8.9 mph - -   Scattered Clouds
2:00 PM 42.8 °F 37.5 °F 32.0 °F 66% 29.95 in - West 9.2 mph - N/A   Clear
2:30 PM 42.8 °F 36.2 °F 30.2 °F 61% 29.95 in - West 12.7 mph - N/A   Clear
3:00 PM 42 °F - 22 °F 31% 29.96 in 6 mi WSW 11.2 mph - -   Scattered Clouds
3:00 PM 44.6 °F 38.4 °F 28.4 °F 53% 29.95 in - West 12.7 mph - N/A   Clear
3:30 PM 42.8 °F 36.6 °F 28.4 °F 57% 29.92 in - West 11.5 mph - N/A   Clear
4:00 PM 42 °F - 21 °F 29% 29.95 in 6 mi WSW 11.2 mph - -   Scattered Clouds
4:00 PM 42.8 °F 36.2 °F 30.2 °F 61% 29.92 in - West 12.7 mph - N/A   Clear
4:30 PM 42.8 °F 35.8 °F 32.0 °F 66% 29.92 in - WSW 13.8 mph - N/A   Clear
5:00 PM 42 °F - 23 °F 34% 29.94 in 6 mi WSW 11.2 mph - -   Clear
5:00 PM 42.8 °F 36.2 °F 32.0 °F 66% 29.92 in - West 12.7 mph - N/A   Clear
5:30 PM 42.8 °F 36.6 °F 32.0 °F 66% 29.92 in - West 11.5 mph - N/A   Clear
6:00 PM 40 °F - 24 °F 39% 29.95 in 6 mi WSW 8.9 mph - -   Clear
6:00 PM 41.0 °F 35.2 °F 33.8 °F 76% 29.92 in - West 9.2 mph - N/A   Clear
6:30 PM 39.2 °F 33.6 °F 33.8 °F 81% 29.92 in - West 8.1 mph - N/A   Clear
7:00 PM 37 °F - 25 °F 50% 29.95 in 6 mi WSW 6.7 mph - -  
7:00 PM 39.2 °F 33.6 °F 33.8 °F 81% 29.92 in - West 8.1 mph - N/A   Clear
7:30 PM 37.4 °F 31.4 °F 33.8 °F 87% 29.95 in - WSW 8.1 mph - N/A   Clear
8:00 PM 36 °F - 28 °F 64% 29.96 in 6 mi WSW 6.7 mph - -  
8:00 PM 37.4 °F 31.4 °F 33.8 °F 87% 29.95 in 5.0 mi West 8.1 mph - N/A   Unknown
8:30 PM 35.6 °F 29.9 °F 33.8 °F 93% 29.95 in 5.0 mi West 6.9 mph - N/A   Unknown
9:00 PM 34 °F - 29 °F 76% 29.96 in 6 mi WSW 4.5 mph - -  
9:00 PM 35.6 °F 29.9 °F 33.8 °F 93% 29.95 in 5.0 mi West 6.9 mph - N/A   Unknown
9:30 PM 35.6 °F 31.7 °F 33.8 °F 93% 29.95 in 5.0 mi West 4.6 mph - N/A   Unknown
10:00 PM 32 °F - 29 °F 85% 29.96 in 6 mi WSW 4.5 mph - -  
10:00 PM 33.8 °F 30.8 °F 33.8 °F 100% 29.95 in 5.0 mi West 3.5 mph - N/A   Unknown
10:30 PM 32.0 °F 28.7 °F 32.0 °F 100% 29.95 in 3.1 mi WNW 3.5 mph - N/A   Mist
11:00 PM 29 °F - 27 °F 90% 29.97 in 6 mi WNW 2.2 mph - -  
11:00 PM 32.0 °F 28.7 °F 32.0 °F 100% 29.95 in 3.1 mi West 3.5 mph - N/A   Mist
11:30 PM 32.0 °F 27.5 °F 30.2 °F 93% 29.95 in 3.1 mi West 4.6 mph - N/A   Mist